Flag for United Kingdom Weather past 2 weeks in St Helens, England, United Kingdom

Now
45 °F

Clear.


Feels Like: 45 °F
Forecast: 38 / 56 °F
Wind: 2 mph from North

Location: Liverpool Airport


UV Index: 3 (Moderate)

Visibility: 10 mi


Pressure: 30.15 "Hg

Humidity: 76%

Dew point: 37 °F

Location of St HelensLocation

Historic Weather in St Helens

°F

St Helens temperature yesterday

Maximum temperature yesterday: 55 °F (at 3:50 PM)
Minimum temperature yesterday: 39 °F (at 5:50 AM)
Average temperature yesterday: 48 °F

Past Weeks' High & Low Weather Summary

 TemperatureHumidityPressure
High61 °F (Apr 6, 12:20 PM)100% (Apr 4, 5:20 AM)30.45 "Hg (Apr 4, 5:20 AM)
Low39 °F (Apr 15, 6:50 AM)47% (Apr 18, 3:20 PM)29.56 "Hg (Apr 7, 11:20 AM)
Average51 °F76%30.05 "Hg
* Reported Apr 3 11:20 PM — Apr 18 11:20 PM, St Helens, Weather by CustomWeather, © 2014

Note: Actual official high and low records may vary slightly from our data, if they occured in-between our weather recording intervals... More about our weather records

Advertising

Historic Weather Conditions — Data for Previous 24 hours

 ConditionsComfort  
Time TempWeatherWind HumidityBarometerVisibility
11:20 PM
Apr 18
46 °FClear.3 mph76%30.15 "Hg10 mi
10:50 PM46 °FClear.2 mph76%30.15 "Hg10 mi
10:20 PM46 °FClear.7 mph76%30.15 "Hg10 mi
9:50 PM48 °FClear.8 mph71%30.15 "Hg10 mi
9:20 PM48 °FClear.7 mph66%30.15 "Hg10 mi
8:50 PM50 °FSunny.7 mph62%30.15 "Hg10 mi
8:20 PM50 °FSunny.7 mph62%30.15 "Hg10 mi
7:50 PM52 °FSunny.8 mph58%30.12 "Hg10 mi
7:20 PM54 °FSunny.7 mph54%30.12 "Hg10 mi
6:50 PM54 °FPassing clouds.6 mph54%30.15 "HgN/A
6:20 PM54 °FPassing clouds.7 mph54%30.15 "HgN/A
5:50 PM55 °FPassing clouds.8 mph51%30.15 "HgN/A
5:20 PM55 °FSunny.8 mph51%30.15 "Hg10 mi
4:50 PM55 °FSunny.8 mph51%30.15 "Hg10 mi
4:20 PM55 °FPassing clouds.6 mph47%30.15 "HgN/A
3:50 PM55 °FSunny.8 mph47%30.18 "Hg10 mi
3:20 PM54 °FPassing clouds.7 mph47%30.18 "HgN/A
2:20 PM54 °FSunny.8 mph51%30.18 "Hg10 mi
1:50 PM52 °FSunny.6 mph54%30.18 "Hg10 mi
12:50 PM52 °FPassing clouds.6 mph54%30.21 "HgN/A
12:20 PM52 °FPassing clouds.7 mph50%30.21 "HgN/A
11:50 AM52 °FPassing clouds.6 mph50%30.21 "HgN/A
11:20 AM50 °FPassing clouds.7 mph54%30.21 "HgN/A
10:20 AM46 °FPassing clouds.9 mph62%30.21 "HgN/A
9:50 AM46 °FPassing clouds.9 mph62%30.21 "HgN/A
9:20 AM46 °FPassing clouds.8 mph66%30.21 "HgN/A
8:50 AM46 °FPassing clouds.8 mph66%30.21 "HgN/A
8:20 AM45 °FSunny.7 mph81%30.18 "Hg10 mi
7:50 AM43 °FSunny.8 mph81%30.18 "Hg10 mi
7:20 AM41 °FSunny.9 mph87%30.18 "Hg10 mi
6:50 AM39 °FClear.6 mph93%30.18 "Hg10 mi
6:20 AM39 °FPassing clouds.5 mph93%30.15 "HgN/A
5:50 AM39 °FClear.6 mph93%30.15 "Hg10 mi
5:20 AM41 °FClear.5 mph87%30.15 "Hg10 mi
4:50 AM43 °FClear.5 mph87%30.15 "Hg10 mi
4:20 AM43 °FClear.5 mph87%30.15 "Hg10 mi
3:50 AM43 °FClear.6 mph87%30.15 "Hg10 mi
3:20 AM45 °FClear.6 mph81%30.15 "Hg10 mi
2:50 AM45 °FClear.5 mph81%30.15 "Hg10 mi
2:20 AM45 °FClear.7 mph81%30.12 "Hg10 mi
1:50 AM45 °FClear.7 mph81%30.12 "Hg10 mi
1:20 AM45 °FClear.8 mph81%30.12 "Hg10 mi
12:20 AM46 °FClear.14 mph82%30.12 "Hg10 mi
Weather by CustomWeather, © 2014

See weather overview